Regional Weather Roundup
Issued by NWS

Home | Current Version | Previous Version | Graphics & Text | Print | Product List | Glossary On
Versions: 1 2 3 4 5 6 7 8 9 10 11 12 13 14 15 16 17 18 19 20 21 22 23 24 25 26 27 28 29 30 31 32 33 34 35 36 37 38 39 40 41 42 43 44 45 46 47 48 49 50
000
ASUS45 KSLC 310410
RWRUT

UTAH REGIONAL WEATHER ROUNDUP
NATIONAL WEATHER SERVICE SALT LAKE CITY UT
900 PM MST FRI JAN 30 2015

UTZ001>011-023>025-310500-

NORTHERN UTAH

CITY           SKY/WX    TMP DP  RH WIND       PRES   REMARKS
BRIGHAM CITY   CLOUDY    47  28  47 S5        30.01R
HILL AFB       CLOUDY    41  29  62 SE22G29   29.98F
LOGAN          CLOUDY    37  34  89 N5        30.03S WCI  33
OGDEN          CLOUDY    44  33  65 W7        29.98S
PROVO AIRPORT  CLOUDY    41  34  75 NW7       29.97S
SALT LAKE CITY CLOUDY    41  36  82 W8        29.98S
VERNAL         LGT RAIN  38  37  97 W3        29.99S FOG
WENDOVER       CLOUDY    41  32  70 W9        30.02S
HEBER CITY     CLOUDY    34  32  93 E6        29.99F WCI  29
WEST JORDAN    CLOUDY    43  36  75 NW9       29.98F

$$

UTZ012>022-026-027-310500-

SOUTHERN/CENTRAL UTAH

CITY           SKY/WX    TMP DP  RH WIND       PRES   REMARKS
BLANDING       CLOUDY    32  32 100 W3        30.06S
BRYCE CANYON   LGT SNOW  30  29  96 NE5       29.93F FOG     WCI  25
CEDAR CITY     CLOUDY    38  37  97 CALM      29.89R
DELTA          CLOUDY    39  38  96 NW9       29.94S WCI  33
HANKSVILLE     CLOUDY    41  41 100 CALM      29.99F
MILFORD        LGT RAIN  39  36  89 N16       29.92S WCI  30
MOAB/CYNLANDS  LGT RAIN  41  40  96 NW3       29.95F
PRICE          MIX PCPN  37  35  92 W3        29.97F
ST GEORGE      CLOUDY    48  45  87 W5        29.90S
KANAB            N/A     39  32  75 N10       29.96S WCI  32

$$

REGIONAL REPORTS     COLORADO/ARIZONA

CITY           SKY/WX    TMP DP  RH WIND       PRES   REMARKS
CRAIG, CO      CLOUDY    33  30  88 SE3       29.97F
GRAND JUNCTION LGT RAIN  39  39 100 CALM      29.95F
RIFLE          LGT RAIN  37  35  92 CALM      29.96S FOG
MONTROSE       CLOUDY    38  37  97 CALM      29.99R
CORTEZ         LGT RAIN  36  34  92 SW6       29.97F WCI  31
PAGE, AZ       NOT AVBL
GRAND CANYON   CLOUDY    37  36  96 E3        29.90S
KINGMAN        CLOUDY    46  45  96 N3        29.87R
FLAGSTAFF      LGT RAIN  38  36  92 S3        29.91S FOG

$$

REGIONAL REPORTS    NEVADA/IDAHO/WYOMING

CITY           SKY/WX    TMP DP  RH WIND       PRES   REMARKS
LAS VEGAS, NV  CLOUDY    52  43  71 CALM      29.83S
ELY            CLOUDY    34  33  96 N16       29.96S WCI  24
ELKO           MOCLDY    38  29  70 CALM      30.02R
POCATELLO, ID  MOCLDY    33  33 100 SW10      30.10S WCI  25
BURLEY         CLOUDY    34  30  85 S6        30.12R WCI  29
EVANSTON, WY   LGT SNOW  32  29  88 N7        30.03F FOG     WCI  26
ROCK SPRINGS   CLOUDY    30  27  88 NE18      30.03F WCI  18
KEMMERER       CLOUDY    32  27  80 NE17      30.05S WCI  21

$$


USA.gov is the U.S. government's official web portal to all federal, state and local government web resources and services.